Orbital Elements at Epoch 2459000.5 (2020-May-31.0) TDB
Reference: JPL 20 (heliocentric ecliptic J2000)
Element | Value | Uncertainty (1-sigma) | Units |
e | .1003935942040441 | 3.2407e-08 | |
a | 2.231155514007197 | 6.3139e-09 | au |
q | 2.007161792727843 | 7.2667e-08 | au |
i | 3.804823581949541 | 3.3858e-06 | deg |
node | 256.372373074106 | 5.5586e-05 | deg |
peri | 161.1469102462371 | 5.8823e-05 | deg |
M | 138.2977520885659 | 1.881e-05 | deg |
tp | 2458532.866289907297 (2019-Feb-18.36628991) | 6.309e-05 | TDB |
period | 1217.287577643076 3.33 | 5.1671e-06 1.415e-08 | d yr |
n | .2957394839246085 | 1.2554e-09 | deg/d |
Q | 2.455149235286551 | 6.9477e-09 | au |
|
| | Orbit Determination Parameters
Additional Information
|